This is the latest recevied weather packets stored in our database for station/object S56WDN-10. If no packets are shown the sender has not sent any weather packets the latest 10 day(s).
| Time | Temp. | Humidity | Pressure | Rain* | Wind** | Luminosity | Snow |
|---|---|---|---|---|---|---|---|
| 1777537033 | 8.89° C | 64% | 1027.3 hPa | 0 mm | - | - | - |
| 1777536733 | 8.89° C | 65% | 1027.4 hPa | 0 mm | - | - | - |
| 1777536433 | 8.33° C | 69% | 1027.2 hPa | 0 mm | - | - | - |
| 1777536133 | 7.78° C | 69% | 1027.2 hPa | 0 mm | - | - | - |
| 1777535833 | 7.22° C | 70% | 1027.3 hPa | 0 mm | - | - | - |
| 1777535533 | 7.22° C | 70% | 1027.5 hPa | 0 mm | - | - | - |
| 1777535233 | 6.67° C | 71% | 1027.3 hPa | 0 mm | - | - | - |
| 1777534933 | 6.67° C | 73% | 1027.5 hPa | 0 mm | - | - | - |
| 1777534633 | 6.11° C | 73% | 1027.5 hPa | 0 mm | - | - | - |
| 1777534333 | 6.11° C | 74% | 1027.5 hPa | 0 mm | - | - | - |
| 1777534033 | 6.11° C | 74% | 1027.6 hPa | 0 mm | - | - | - |
| 1777533733 | 5.56° C | 76% | 1027.5 hPa | 0 mm | - | - | - |
| 1777533433 | 5.56° C | 77% | 1027.5 hPa | 0 mm | - | - | - |
| 1777533133 | 5° C | 79% | 1027.6 hPa | 0 mm | - | - | - |
| 1777532833 | 4.44° C | 82% | 1027.5 hPa | 0 mm | - | - | - |
| 1777532533 | 4.44° C | 83% | 1027.4 hPa | 0 mm | - | - | - |
| 1777532233 | 3.89° C | 85% | 1027.5 hPa | 0 mm | - | - | - |
| 1777531933 | 3.89° C | 85% | 1027.6 hPa | 0 mm | - | - | - |
| 1777531633 | 3.89° C | 86% | 1027.5 hPa | 0 mm | - | - | - |
| 1777531333 | 3.89° C | 87% | 1027.5 hPa | 0 mm | - | - | - |
| 1777531033 | 3.33° C | 88% | 1027.5 hPa | 0 mm | - | - | - |
| 1777530733 | 3.33° C | 89% | 1027.5 hPa | 0 mm | - | - | - |
| 1777530433 | 2.78° C | 89% | 1027.5 hPa | 0 mm | - | - | - |
| 1777530133 | 2.78° C | 90% | 1027.5 hPa | 0 mm | - | - | - |
| 1777529833 | 2.78° C | 91% | 1027.5 hPa | 0 mm | - | - | - |
* Rain latest hour (hover to see other rain measurements)
** Current wind speed in m/s (hover to see current wind gust speed)